Home   Weather   Caguas   Past weeks

Flag for Puerto Rico Past Weather in Caguas, Puerto Rico — Yesterday and Last 2 Weeks

Now
89 °F

Passing clouds.


Feels Like: 102 °F
Forecast: 79 / 90 °F
Wind: 18 mph from Northeast

Location: Luis Munoz Marin

Current Time: Jul 24, 2017 at 12:53:40 pm

Latest Report: Jul 24, 2017 at 11:56 am


Visibility: 9 mi

Pressure: 30.08 "Hg

Humidity: 68%

Dew Point: 77 °F

Location of CaguasLocation

Past Weather in Caguas — Graph

°F

Caguas Temperature Yesterday

Maximum temperature yesterday: 90 °F (at 10:56 am)
Minimum temperature yesterday: 80 °F (at 5:56 am)
Average temperature yesterday: 85 °F

High & Low Weather Summary for the Past Weeks

 TemperatureHumidityPressure
High90 °F (Jul 10, 10:56 am)94% (Jul 23, 5:56 am)30.11 "Hg (Jul 23, 5:56 am)
Low78 °F (Jul 12, 3:56 am)56% (Jul 10, 5:56 pm)29.93 "Hg (Jul 9, 4:56 pm)
Average84 °F77%30.03 "Hg
* Reported Jul 9 10:56 am — Jul 24 10:56 am, Caguas. Weather by CustomWeather, © 2017

Note: Actual official high and low records may vary slightly from our data, if they occured in-between our weather recording intervals... More about our weather records

Advertising

Caguas Weather History for the Previous 24 Hours

Scroll right to see more
 ConditionsComfort  
Time TempWeatherWind HumidityBarometerVisibility
10:56 am
Mon, Jul 24
88 °FScattered clouds.20 mph70%30.08 "Hg9 mi
9:56 am87 °FScattered clouds.12 mph69%30.07 "Hg9 mi
8:56 am87 °FPassing clouds.16 mph67%30.07 "Hg9 mi
7:56 am84 °FPassing clouds.10 mph74%30.06 "Hg9 mi
6:56 am82 °FPassing clouds.7 mph79%30.06 "Hg9 mi
5:56 am82 °FPassing clouds.7 mph82%30.04 "Hg9 mi
4:56 am82 °FPassing clouds.5 mph82%30.03 "Hg10 mi
3:56 am82 °FPassing clouds.6 mph79%30.02 "Hg10 mi
2:56 am82 °FPassing clouds.10 mph79%30.03 "Hg10 mi
1:56 am82 °FPassing clouds.9 mph82%30.03 "Hg10 mi
12:56 am82 °FPassing clouds.7 mph82%30.06 "Hg10 mi
11:56 pm
Sun, Jul 23
83 °FPassing clouds.9 mph79%30.07 "Hg10 mi
10:56 pm83 °FPassing clouds.7 mph85%30.08 "Hg10 mi
9:56 pm83 °FPassing clouds.9 mph85%30.07 "Hg9 mi
8:56 pm84 °FPassing clouds.9 mph80%30.06 "Hg9 mi
7:56 pm84 °FScattered clouds.8 mph83%30.04 "Hg9 mi
6:56 pm84 °FScattered clouds.10 mph80%30.03 "Hg9 mi
5:56 pm85 °FLight rain. Cloudy.15 mph83%30.02 "Hg9 mi
4:56 pm87 °FScattered clouds.18 mph75%30.01 "Hg9 mi
3:56 pm88 °FScattered clouds.17 mph70%30.01 "Hg9 mi
2:56 pm90 °FScattered clouds.17 mph66%30.01 "Hg9 mi
1:56 pm89 °FScattered clouds.18 mph68%30.02 "Hg9 mi
12:56 pm90 °FScattered clouds.16 mph68%30.03 "Hg9 mi
Weather by CustomWeather, © 2017

See weather overviewHow to use our weather pages